User: anonymous   Login
Location: Caltech
(34.1382°N, 118.1253°W)
Time: 10:47:58
(UTC-07:00)
Language:

OAO 2 Rocket - Orbit

View from above orbital plane
View from above orbital plane
View from above satellite
View from above satellite

Ground track
Ground track

The orbit data is extracted from the following two-line orbital elements,

1 03598U 68110B   15146.49560177  .00000183  00000-0  46594-4 0  9991
2 03598 034.9941 266.8297 0050150 243.7903 115.7628 14.54047602456846
Epoch (UTC): 26 May 2015 11:53:39
Eccentricity: 0.0050150
inclination: 34.9941°
perigee height: 677 km
apogee height: 748 km
right ascension of ascending node: 266.8297°
argument of perigee: 243.7903°
revolutions per day: 14.54047602
mean anomaly at epoch: 115.7628°
orbit number at epoch: 45684

The dashed part of the orbit path shows where the satellite is in the earth's shadow,  

DLR